Weather History for KTKC - February, 2013

Change the Weather History Date:

Sunday, February 24, 2013

  Actual Average (KMML) Record (KMML)
Temperature  
Mean Temperature 12 °F -  
Max Temperature 22 °F 30 °F 56 °F (1976)
Min Temperature 1 °F 12 °F -17 °F (1965)
Degree Days  
Heating Degree Days 54    
Moisture  
Dew Point 10 °F    
Average Humidity 88    
Maximum Humidity 95    
Minimum Humidity 84    
Precipitation  
Precipitation 0.00 in - - ()
Sea Level Pressure  
Sea Level Pressure 30.00 in    
Wind  
Wind Speed 0 mph (North)    
Max Wind Speed 0 mph    
Max Gust Speed -    
Visibility 6 miles    
Events Fog , Snow    
Averages and records for this station are not official NWS values.
T = Trace of Precipitation, MM = Missing Value Source: NWS Daily Summary

Daily Weather History Graph

Daily Weather History Graph

Search for Another Location

Airport or City:

Trip Planner

Search our weather history database for the weather conditions in past years. The results will help you decide how hot, cold, wet, or windy it might be!

Date:

Astronomy

Feb. 24, 2013 Rise Set
Actual Time 7:07 AM CST 6:04 PM CST
Civil Twilight 6:38 AM CST 6:33 PM CST
Nautical Twilight 6:04 AM CST 7:07 PM CST
Astronomical Twilight 5:31 AM CST 7:40 PM CST
Moon 5:16 PM CST (2/24) 6:06 AM CST (2/24)
Length of Visible Light 11h 55m
Length of Day
10h 56m
Waxing Gibbous, 99% of the Moon is Illuminated
Feb 24
Waxing Gibbous
Feb 25
Full
Mar 4
Last Quarter
Mar 11
New
Mar 19
First Quarter

Hourly Weather History & Observations

Time (CST) Temp. Dew Point Humidity Pressure Visibility Wind Dir Wind Speed Gust Speed Precip Events Conditions
12:17 AM 5.4 °F 1.8 °F 85% 29.92 in 7.0 mi Calm Calm - N/A   Clear
12:37 AM 5.0 °F 1.6 °F 86% 29.92 in 7.0 mi Calm Calm - N/A   Clear
12:58 AM 1.2 °F -2.4 °F 85% 29.92 in 10.0 mi Calm Calm - N/A   Clear
1:18 AM 3.9 °F 1.0 °F 88% 29.92 in 7.0 mi Calm Calm - N/A   Clear
1:37 AM 5.2 °F 2.5 °F 89% 29.92 in 10.0 mi Calm Calm - N/A   Clear
1:58 AM 7.0 °F 3.9 °F 87% 29.92 in 10.0 mi Calm Calm - N/A   Clear
2:18 AM 7.9 °F 5.5 °F 90% 29.92 in 7.0 mi Calm Calm - N/A   Clear
2:37 AM 5.9 °F 2.7 °F 87% 29.93 in 10.0 mi Calm Calm - N/A   Clear
2:58 AM 6.4 °F 3.2 °F 87% 29.93 in 7.0 mi Calm Calm - N/A   Clear
3:18 AM 4.3 °F 1.2 °F 87% 29.93 in 7.0 mi Calm Calm - N/A   Clear
3:38 AM 3.6 °F 0.3 °F 86% 29.94 in 5.0 mi Calm Calm - N/A   Mostly Cloudy
3:58 AM 5.5 °F 2.5 °F 87% 29.94 in 2.5 mi Calm Calm - N/A   Overcast
4:18 AM 3.6 °F 0.5 °F 87% 29.94 in 2.5 mi Calm Calm - N/A   Overcast
4:38 AM 3.0 °F -0.2 °F 86% 29.94 in 10.0 mi Calm Calm - N/A   Mostly Cloudy
4:58 AM 5.0 °F 2.1 °F 88% 29.95 in 0.5 mi Calm Calm - N/A Fog Light Freezing Fog
5:18 AM 5.2 °F 2.1 °F 87% 29.95 in 0.5 mi Calm Calm - N/A Fog Light Freezing Fog
5:38 AM 5.7 °F 3.0 °F 89% 29.95 in 10.0 mi Calm Calm - N/A   Clear
5:58 AM 6.3 °F 3.2 °F 87% 29.96 in 5.0 mi Calm Calm - N/A   Clear
6:18 AM 6.4 °F 3.4 °F 87% 29.96 in 1.8 mi Calm Calm - N/A   Overcast
6:38 AM 7.9 °F 5.0 °F 88% 29.97 in 0.2 mi Calm Calm - N/A Fog Light Freezing Fog
6:57 AM 6.6 °F 3.6 °F 87% 29.96 in 1.0 mi Calm Calm - N/A   Overcast
7:18 AM 6.4 °F 3.6 °F 88% 29.97 in 0.2 mi Calm Calm - N/A Fog Light Freezing Fog
7:38 AM 5.4 °F 2.1 °F 86% 29.97 in 1.2 mi Calm Calm - N/A   Mostly Cloudy
7:57 AM 5.0 °F 1.9 °F 87% 29.98 in 0.2 mi Calm Calm - N/A Snow Light Snow
8:18 AM 5.7 °F 2.5 °F 86% 29.99 in 0.2 mi Calm Calm - N/A Fog Light Freezing Fog
8:38 AM 6.3 °F 3.2 °F 87% 30.00 in 0.2 mi Calm Calm - N/A Fog Light Freezing Fog
8:58 AM 7.0 °F 4.1 °F 88% 30.00 in 0.5 mi Calm Calm - N/A Snow Light Snow
9:18 AM 8.6 °F 5.7 °F 88% 30.00 in 1.5 mi Calm Calm - N/A Snow Light Snow
9:38 AM 9.1 °F 6.1 °F 87% 30.01 in 1.0 mi Calm Calm - N/A Snow Light Snow
9:58 AM 10.0 °F 7.2 °F 88% 30.02 in 1.5 mi Calm Calm - N/A Snow Light Snow
10:17 AM 11.1 °F 8.4 °F 89% 30.02 in 2.0 mi Calm Calm - N/A Snow Light Snow
10:37 AM 12.2 °F 9.3 °F 88% 30.02 in 4.0 mi Calm Calm - N/A Snow Light Snow
10:58 AM 13.1 °F 10.4 °F 89% 30.03 in 4.0 mi Calm Calm - N/A   Mostly Cloudy
11:18 AM 13.6 °F 11.1 °F 90% 30.04 in 5.0 mi Calm Calm - N/A   Mostly Cloudy
11:38 AM 14.2 °F 11.7 °F 90% 30.04 in 3.0 mi Calm Calm - N/A   Mostly Cloudy
11:58 AM 14.0 °F 11.5 °F 90% 30.04 in 4.0 mi Calm Calm - N/A   Scattered Clouds
12:18 PM 14.0 °F 11.1 °F 88% 30.04 in 4.0 mi Calm Calm - N/A   Clear
12:37 PM 15.4 °F 12.7 °F 89% 30.04 in 5.0 mi Calm Calm - N/A   Scattered Clouds
12:58 PM 16.0 °F 13.1 °F 88% 30.03 in 5.0 mi Calm Calm - N/A   Scattered Clouds
1:17 PM 16.9 °F 14.0 °F 88% 30.03 in 7.0 mi Calm Calm - N/A   Clear
1:38 PM 16.9 °F 14.2 °F 89% 30.02 in 7.0 mi Calm Calm - N/A   Clear
1:57 PM 16.7 °F 13.8 °F 88% 30.01 in 10.0 mi Calm Calm - N/A   Clear
2:18 PM 17.2 °F 14.2 °F 88% 30.01 in 10.0 mi Calm Calm - N/A   Clear
2:37 PM 16.7 °F 14.0 °F 89% 30.01 in 7.0 mi Calm Calm - N/A   Clear
2:58 PM 17.2 °F 14.2 °F 88% 30.00 in 10.0 mi Calm Calm - N/A   Scattered Clouds
3:17 PM 16.5 °F 13.5 °F 88% 30.01 in 10.0 mi Calm Calm - N/A   Overcast
3:38 PM 16.3 °F 12.7 °F 86% 30.01 in 10.0 mi Calm Calm - N/A   Overcast
3:58 PM 16.7 °F 12.9 °F 85% 30.01 in 10.0 mi Calm Calm - N/A   Overcast
4:18 PM 16.2 °F 12.2 °F 84% 30.02 in 10.0 mi Calm Calm - N/A   Mostly Cloudy
4:38 PM 16.0 °F 12.2 °F 85% 30.02 in 10.0 mi Calm Calm - N/A   Overcast
4:57 PM 16.3 °F 12.4 °F 84% 30.02 in 10.0 mi Calm Calm - N/A   Overcast
5:18 PM 16.7 °F 12.7 °F 84% 30.02 in 10.0 mi Calm Calm - N/A   Overcast
5:38 PM 16.7 °F 12.9 °F 85% 30.02 in 10.0 mi Calm Calm - N/A   Overcast
5:57 PM 16.9 °F 13.1 °F 85% 30.03 in 10.0 mi Calm Calm - N/A   Overcast
6:18 PM 17.6 °F 13.8 °F 85% 30.03 in 10.0 mi Calm Calm - N/A   Overcast
6:38 PM 18.0 °F 14.2 °F 85% 30.04 in 10.0 mi Calm Calm - N/A   Overcast
6:57 PM 18.3 °F 14.5 °F 85% 30.04 in 10.0 mi Calm Calm - N/A   Overcast
7:18 PM 19.0 °F 15.4 °F 86% 30.03 in 10.0 mi Calm Calm - N/A   Overcast
7:37 PM 19.4 °F 15.8 °F 86% 30.04 in 10.0 mi Calm Calm - N/A   Overcast
7:58 PM 19.2 °F 15.6 °F 86% 30.04 in 10.0 mi Calm Calm - N/A   Overcast
8:18 PM 19.6 °F 16.2 °F 87% 30.05 in 10.0 mi Calm Calm - N/A   Overcast
8:38 PM 20.1 °F 16.7 °F 87% 30.05 in 10.0 mi Calm Calm - N/A   Overcast
8:58 PM 20.3 °F 16.7 °F 86% 30.05 in 10.0 mi Calm Calm - N/A   Overcast
9:18 PM 20.3 °F 18.1 °F 91% 30.05 in 4.0 mi Calm Calm - N/A   Overcast
9:37 PM 20.3 °F 18.9 °F 94% 30.06 in 2.0 mi Calm Calm - N/A   Overcast
9:58 PM 20.7 °F 19.2 °F 94% 30.06 in 1.5 mi Calm Calm - N/A   Overcast
10:18 PM 21.0 °F 19.4 °F 93% 30.07 in 0.5 mi Calm Calm - N/A Fog Light Freezing Fog
10:37 PM 21.2 °F 19.9 °F 95% 30.07 in 1.2 mi Calm Calm - N/A   Overcast
10:58 PM 22.1 °F 20.5 °F 93% 30.07 in 2.5 mi Calm Calm - N/A   Overcast
11:17 PM 21.9 °F 20.3 °F 93% 30.07 in 2.0 mi Calm Calm - N/A   Overcast
11:37 PM 21.7 °F 20.3 °F 94% 30.07 in 1.5 mi Calm Calm - N/A   Overcast
11:57 PM 21.7 °F 20.3 °F 94% 30.06 in 1.5 mi Calm Calm - N/A   Overcast